This demonstration page uses our WeatherBlox Daily Observations layout. Learn more.

Left ArrowRight Arrow

Hourly Observations for July 11, 2018

Temp ( °F °C ) Dew Point ( °F °C ) Humidity (%) Winds ( mph kmh ) Pressure ( in mb ) Visibility ( mi km ) Precip ( " mm )
12:53 am 00:53 Clear 74 23.3 65 18.3 74 74 ESE 3 6 29.98 1015 10 16 0.00 0.00
1:53 am 01:53 Clear 72 22.2 66 18.9 82 82 E 3 6 29.96 1015 10 16 0.00 0.00
2:53 am 02:53 Clear 71 21.7 65 18.3 81 81 E 6 9 29.95 1014 10 16 0.00 0.00
3:53 am 03:53 Clear 69 20.6 64 17.8 84 84 ENE 3 6 29.94 1014 10 16 0.00 0.00
4:53 am 04:53 Clear 70 21.1 60 15.6 71 71 ESE 7 11 29.93 1014 10 16 0.00 0.00
5:53 am 05:53 Clear 71 21.7 59 15 66 66 SE 10 17 29.93 1014 10 16 0.00 0.00
6:53 am 06:53 Clear 71 21.7 60 15.6 68 68 SE 9 15 29.95 1014 10 16 0.00 0.00
7:53 am 07:53 Sunny 70 21.1 61 16.1 73 73 SE 8 13 29.98 1015 10 16 0.00 0.00
8:53 am 08:53 Sunny 76 24.4 62 16.7 62 62 SSE 13 20 29.98 1015 10 16 0.00 0.00
9:53 am 09:53 Sunny 79 26.1 62 16.7 56 56 SSE 9 15 29.98 1015 10 16 0.00 0.00
10:53 am 10:53 Sunny 82 27.8 63 17.2 53 53 SE 9 15 29.97 1015 10 16 0.00 0.00
11:53 am 11:53 Sunny 86 30 63 17.2 46 46 SSE 9 15 29.96 1015 10 16 0.00 0.00
12:53 pm 12:53 Sunny 89 31.7 62 16.7 41 41 SE 10 17 29.95 1014 10 16 0.00 0.00
1:53 pm 13:53 Sunny 91 32.8 60 15.6 35 35 SSE 9 15 29.92 1013 10 16 0.00 0.00
2:53 pm 14:53 Mostly Sunny 93 33.9 59 15 32 32 SSE 8 13 29.90 1012 10 16 0.00 0.00
3:53 pm 15:53 Mostly Sunny 94 34.4 59 15 31 31 SSE 13 20 29.86 1011 10 16 0.00 0.00
4:53 pm 16:53 Sunny 94 34.4 58 14.4 30 30 SE 15 24 29.84 1010 10 16 0.00 0.00
5:53 pm 17:53 Sunny 94 34.4 56 13.3 28 28 S 10 17 29.82 1010 10 16 0.00 0.00
6:53 pm 18:53 Sunny 94 34.4 55 12.8 27 27 S 13 20 29.82 1010 10 16 0.00 0.00
7:53 pm 19:53 Sunny 91 32.8 55 12.8 30 30 SSE 8 13 29.83 1010 10 16 0.00 0.00
8:53 pm 20:53 Sunny 87 30.6 57 13.9 36 36 SSE 7 11 29.83 1010 10 16 0.00 0.00
9:53 pm 21:53 Mostly Clear 86 30 58 14.4 39 39 SSE 9 15 29.86 1011 10 16 0.00 0.00
10:53 pm 22:53 Clear 83 28.3 58 14.4 43 43 SE 8 13 29.89 1012 10 16 0.00 0.00
11:53 pm 23:53 Mostly Cloudy 84 28.9 57 13.9 40 40 SSE 12 19 29.91 1013 10 16 0.00 0.00

Powered by AerisWeather